Iowa City, IA

8:48 PM CST on December 08, 2019 (GMT -0600)
Iowa City Municipal

Weather History for KIOW - October, 2019

Change the Weather History Date:

Monday, October 7, 2019

  Actual Average Record
Temperature  
Mean Temperature 56 °F 55 °F  
Max Temperature 71 °F 67 °F 88 °F (2007)
Min Temperature 41 °F 44 °F 22 °F (1952)
Degree Days  
Heating Degree Days 9 10  
Month to date heating degree days 53 65  
Since 1 July heating degree days 60 177  
Cooling Degree Days 0 1  
Month to date cooling degree days 18 7  
Year to date cooling degree days 1175 909  
Growing Degree Days 6 (Base 50)    
Moisture  
Dew Point 42 °F    
Average Humidity 60    
Maximum Humidity 89    
Minimum Humidity 31    
Precipitation  
Precipitation 0.00 in 0.08 in 1.52 in (1948)
Month to date precipitation 1.41 0.57  
Year to date precipitation 38.38 30.11  
Sea Level Pressure  
Sea Level Pressure 30.22 in    
Wind  
Wind Speed 4 mph (WNW)    
Max Wind Speed 18 mph    
Max Gust Speed 25 mph    
Visibility 10 miles    
Events      
T = Trace of Precipitation, MM = Missing Value Source: NWS Daily Summary

Daily Weather History Graph

Daily Weather History Graph

Search for Another Location

Airport or City:

Astronomy

Oct. 07, 2019 Rise Set
Actual Time 7:09 AM CDT 6:38 PM CDT
Civil Twilight 6:41 AM CDT 7:05 PM CDT
Nautical Twilight 6:09 AM CDT 7:37 PM CDT
Astronomical Twilight 5:37 AM CDT 8:10 PM CDT
Moon 4:05 PM CDT (10/7) 12:56 AM CDT (10/7)
Length of Visible Light 12h 24m
Length of Day
11h 28m
Waxing Gibbous, 69% of the Moon is Illuminated
Oct 7
Waxing Gibbous
Oct 13
Full
Oct 21
Last Quarter
Oct 27
New
Nov 4
First Quarter

Hourly Weather History & Observations

Time (CDT) Temp. Windchill Dew Point Humidity Pressure Visibility Wind Dir Wind Speed Gust Speed Precip Events Conditions
12:52 AM 46.0 °F 44.8 °F 42.1 °F 86% 30.20 in 10.0 mi West 3.5 mph - N/A   Clear
1:52 AM 45.0 °F - 41.0 °F 86% 30.20 in 10.0 mi Calm Calm - N/A   Clear
2:52 AM 44.1 °F - 39.9 °F 85% 30.20 in 10.0 mi Calm Calm - N/A   Clear
3:52 AM 44.1 °F - 39.9 °F 85% 30.21 in 10.0 mi Calm Calm - N/A   Clear
4:52 AM 42.1 °F - 39.0 °F 89% 30.22 in 10.0 mi Calm Calm - N/A   Clear
5:52 AM 42.1 °F - 37.9 °F 85% 30.23 in 10.0 mi Calm Calm - N/A   Unknown
6:52 AM 42.1 °F - 39.0 °F 89% 30.23 in 10.0 mi Calm Calm - N/A   Clear
7:52 AM 45.0 °F - 41.0 °F 86% 30.24 in 10.0 mi Calm Calm - N/A   Clear
8:52 AM 50.0 °F - 44.1 °F 80% 30.25 in 10.0 mi West 5.8 mph - N/A   Clear
9:52 AM 57.0 °F - 44.1 °F 62% 30.25 in 10.0 mi NW 8.1 mph - N/A   Clear
10:52 AM 61.0 °F - 45.0 °F 56% 30.26 in 10.0 mi NNW 6.9 mph - N/A   Clear
11:52 AM 64.9 °F - 44.1 °F 47% 30.25 in 10.0 mi WNW 8.1 mph - N/A   Clear
12:52 PM 68.0 °F - 44.1 °F 42% 30.24 in 10.0 mi WNW 6.9 mph - N/A   Clear
1:52 PM 70.0 °F - 37.9 °F 31% 30.22 in 10.0 mi West 12.7 mph 19.6 mph N/A   Clear
2:52 PM 70.0 °F - 37.0 °F 30% 30.21 in 10.0 mi WNW 15.0 mph 24.2 mph N/A   Clear
3:52 PM 70.0 °F - 39.9 °F 33% 30.20 in 10.0 mi NW 9.2 mph - N/A   Clear
4:52 PM 69.1 °F - 39.9 °F 35% 30.19 in 10.0 mi WNW 8.1 mph - N/A   Clear
5:52 PM 66.9 °F - 39.9 °F 37% 30.19 in 10.0 mi WNW 3.5 mph - N/A   Clear
6:52 PM 59.0 °F - 45.0 °F 60% 30.19 in 10.0 mi Calm Calm - N/A   Clear
7:52 PM 53.1 °F - 45.0 °F 74% 30.19 in 10.0 mi Calm Calm - N/A   Clear
8:52 PM 52.0 °F - 45.0 °F 77% 30.20 in 10.0 mi Calm Calm - N/A   Clear
9:52 PM 50.0 °F - 44.1 °F 80% 30.20 in 10.0 mi Calm Calm - N/A   Clear
10:52 PM 48.9 °F - 45.0 °F 86% 30.21 in 10.0 mi Calm Calm - N/A   Clear
11:52 PM 48.0 °F - 44.1 °F 86% 30.20 in 10.0 mi Calm Calm - N/A   Clear